Probability
0 0 0 0 0 0 0 0 0 0 0 0 0 0 0 0 0 0 0 0 0 2 3 2 0 0 0 0 0 0 0 1 0 0 0 0 0 0 0 0 0 0 0 0 0 0 0 0 0
0 0 0 0 0 0 0 0 0 0 0 0 0 0 0 0 0 0 0 0 0 2 3 1 0 0 0 0 0 0 0 1 0 0 0 0 0 0 0 0 0 0 0 0 0 0 0 0 0
0 0 0 0 0 0 0 0 0 0 0 0 0 0 0 0 0 0 0 0 0 1 1 0 0 0 0 0 0 0 0 0 0 0 0 0 0 0 0 0 0 0 0 0 0 0 0 0 0
0 0 0 0 0 0 0 0 0 0 0 0 0 0 0 0 0 0 0 0 0 0 0 0 0 0 0 0 0 0 0 0 0 0 0 0 0 0 0 0 0 0 0 0 0 0 0 0 0
0 0 0 0 0 0 0 0 0 0 0 0 0 0 0 0 1 1 1 0 0 0 0 0 0 0 0 0 0 0 0 1 1 0 0 1 1 1 0 0 0 0 0 0 0 0 0 0 0
0 0 0 0 0 0 0 0 0 0 0 0 0 0 0 0 1 2 2 1 0 0 0 0 0 1 1 1 0 0 1 3 3 2 2 2 1 1 0 0 0 0 0 0 0 0 0 0 0
0 0 0 0 0 0 0 0 0 0 0 0 0 0 1 2 3 4 4 2 1 0 0 0 1 2 2 1 0 0 2 5 7 6 4 3 1 0 0 0 0 0 0 0 0 0 0 0 0
0 0 0 0 0 0 0 0 0 0 0 0 0 0 3 9 13 14 11 6 3 1 1 0 1 2 2 2 3 3 4 6 9 9 9 7 3 1 1 1 2 1 0 0 0 0 0 0 0
0 0 0 0 0 0 0 0 0 0 0 0 0 2 10 24 35 35 29 20 12 7 4 3 3 4 3 5 10 10 9 11 13 16 19 18 12 7 5 7 9 5 1 0 0 0 0 0 0
0 0 0 0 0 0 0 0 0 0 0 0 1 5 14 32 50 56 51 41 30 21 14 10 10 11 10 13 19 20 22 25 25 29 38 39 33 26 18 18 21 15 7 4 3 1 0 0 1
0 0 0 0 0 0 0 0 0 1 1 2 4 6 13 27 45 58 61 55 46 34 25 21 22 25 25 26 31 36 42 47 45 49 60 64 60 53 43 37 34 27 21 16 13 9 5 3 2
0 0 0 0 0 0 0 0 1 3 5 7 9 11 14 22 34 49 60 60 52 41 35 34 42 49 51 49 50 54 61 65 63 67 75 79 79 74 68 60 49 40 36 31 25 19 13 9 7
0 0 0 0 0 0 1 1 4 7 10 14 20 25 27 32 39 49 60 63 57 49 47 51 62 71 72 70 66 65 69 72 73 76 80 81 82 79 76 73 63 50 44 40 33 24 18 14 12
0 0 0 0 0 0 2 4 7 12 17 25 36 45 49 51 55 59 64 66 62 58 58 63 69 75 78 76 69 63 63 68 71 75 79 79 77 75 73 73 67 55 48 45 38 27 20 17 15
0 0 0 0 0 0 2 6 13 17 23 34 48 59 65 68 68 69 71 71 68 66 65 63 63 67 73 73 65 56 53 56 62 69 73 72 68 65 65 63 60 54 50 47 39 29 23 19 15
0 0 0 0 0 0 2 7 16 21 26 34 46 57 66 71 72 72 73 72 71 72 70 62 56 59 65 64 56 47 43 45 51 55 58 56 52 51 52 51 50 49 48 42 33 25 20 17 15
0 0 0 0 0 0 3 9 15 21 26 30 37 46 54 61 65 66 67 67 67 69 69 62 55 55 54 49 44 39 36 36 38 40 41 39 36 37 41 42 41 41 39 34 25 19 15 13 11
0 0 0 0 0 1 4 8 12 15 18 22 26 30 34 40 45 51 56 57 56 58 61 58 53 49 42 36 33 31 29 27 27 28 29 26 27 30 35 35 33 31 31 27 21 14 10 8 6
0 0 0 0 0 1 3 6 7 7 8 12 16 17 18 21 27 36 43 45 42 42 44 43 40 36 31 27 25 23 22 19 17 18 19 18 20 25 28 27 24 23 24 22 16 11 7 6 5
0 0 0 0 0 0 1 2 2 2 2 5 9 12 14 16 20 25 29 29 26 25 24 22 21 21 19 17 15 13 13 12 10 10 11 11 14 18 20 19 17 17 18 16 13 10 7 6 6
0 0 0 0 0 0 0 0 0 0 1 2 5 9 12 14 14 14 15 14 13 12 10 9 10 10 8 6 5 5 6 7 6 6 7 6 7 11 14 14 14 14 13 11 9 8 6 6 6
0 0 0 0 0 0 0 0 1 0 0 1 2 4 6 6 6 5 4 5 5 5 5 7 7 7 4 1 1 2 4 5 5 4 3 2 3 5 9 12 14 15 13 9 7 5 5 5 4
0 0 0 0 0 0 0 1 2 1 0 0 0 0 1 1 1 1 1 2 2 2 4 5 5 5 3 1 0 1 3 5 4 3 1 1 1 3 5 9 14 17 16 14 13 11 10 8 7
0 0 0 0 0 0 0 1 2 1 1 1 0 0 0 1 1 1 1 2 1 1 3 3 4 4 3 2 1 2 4 6 5 2 2 2 1 1 3 6 11 16 18 21 23 21 18 16 15
0 0 0 0 0 0 0 1 2 2 1 1 0 0 1 1 2 2 2 3 2 1 1 1 2 3 3 3 3 4 6 6 4 2 2 2 2 1 1 4 7 11 14 19 23 25 25 25 25
0 0 0 0 0 0 0 1 2 2 1 0 0 1 1 1 1 1 1 2 2 1 0 0 1 1 2 2 4 5 6 4 3 2 1 1 2 3 2 2 4 6 8 11 16 21 25 29 32
0 0 0 0 0 0 0 1 1 1 0 0 0 0 0 0 0 0 0 1 1 0 0 0 1 1 1 1 2 4 4 3 3 3 2 1 2 3 3 1 2 3 4 5 8 13 18 25 28
0 0 0 0 0 0 0 1 1 0 0 0 0 0 0 0 0 0 0 0 0 0 0 0 1 2 1 1 1 1 2 3 3 3 3 2 3 3 2 1 0 1 2 2 3 5 9 13 17
0 0 0 0 0 0 0 0 0 0 0 0 0 0 0 0 0 0 0 0 0 0 0 0 1 2 1 0 0 0 1 2 3 3 3 3 3 3 2 1 0 0 0 1 1 1 3 5 7
0 0 0 0 0 0 0 0 0 0 0 0 0 0 0 0 0 0 0 0 0 0 0 0 0 1 0 0 0 0 0 1 3 3 3 3 3 3 2 1 0 0 0 0 0 0 1 2 3
Wind_Speed
16 14 8 5 6 7 1 4 4 4 3 3 1 2 4 5 6 6 5 12 16 18 20 20 17 16 15 14 14 13 13 13 13 13 13 12 11 11 10 10 9 8 7 7 7 7 7 8 9
14 11 7 6 7 3 4 4 5 5 4 1 1 3 4 2 5 5 7 13 18 19 19 18 19 17 16 14 14 13 13 13 13 13 12 12 11 10 10 9 9 8 7 7 7 7 7 7 8
13 10 6 6 5 5 6 6 5 3 2 3 1 2 4 5 4 4 9 16 18 17 17 18 19 17 16 15 14 14 13 13 13 12 12 11 11 10 9 9 8 7 7 7 7 7 7 7 7
8 7 7 8 6 4 5 6 5 3 1 2 2 1 4 6 3 7 14 17 18 17 17 19 19 17 16 15 15 14 13 13 12 12 11 11 10 9 9 9 8 7 7 7 7 7 7 7 7
7 7 8 8 3 3 3 5 5 5 2 1 2 1 6 6 7 12 15 17 17 17 16 19 18 17 16 15 14 14 13 12 12 11 10 10 9 9 9 8 8 8 7 7 7 7 7 7 8
6 7 9 7 2 3 4 5 5 5 2 1 2 2 7 7 9 13 15 14 16 15 15 18 17 16 15 15 14 13 13 12 11 11 10 9 9 8 8 8 8 8 7 7 7 7 8 8 8
8 7 10 9 6 2 4 6 6 6 4 2 1 1 8 9 10 12 13 13 14 14 13 15 16 15 15 14 13 13 12 11 11 10 10 10 9 9 9 8 8 9 9 8 9 9 9 10 10
7 8 11 9 7 4 4 5 5 6 3 2 1 1 6 12 13 14 13 12 12 12 12 13 13 13 13 14 14 12 12 11 11 11 10 10 10 10 10 10 11 11 10 10 11 11 11 11 11
7 9 12 9 7 5 5 7 5 4 1 1 1 5 7 16 16 15 13 12 11 11 10 11 12 11 11 11 12 13 12 12 11 12 12 11 11 11 11 13 10 11 11 12 12 12 13 12 13
9 11 12 6 7 8 8 8 7 5 2 1 3 6 10 15 16 16 14 14 14 13 12 10 10 10 10 7 8 8 9 9 10 8 10 9 8 7 8 6 9 11 13 13 14 14 13 13 10
9 12 10 8 8 9 10 8 5 7 3 7 5 4 9 13 14 14 13 13 13 12 12 11 9 8 8 6 5 5 5 5 8 9 8 8 7 6 7 5 8 10 13 11 11 12 11 10 9
11 11 11 11 8 9 9 7 4 6 8 9 6 3 8 11 12 13 12 11 11 11 11 10 10 8 7 6 5 5 5 5 6 7 9 8 6 6 6 5 6 6 6 7 7 7 10 10 11
13 12 10 10 11 10 8 5 3 6 10 7 4 4 6 7 8 9 10 10 10 10 10 10 9 9 7 6 5 5 6 6 7 6 8 9 7 7 7 6 6 7 6 7 7 8 9 9 10
8 10 11 9 8 6 5 1 1 7 8 7 6 5 5 5 6 7 8 9 9 10 10 10 9 8 6 5 5 6 6 5 7 7 9 9 8 7 7 7 7 7 7 6 7 9 8 8 8
8 11 10 3 3 4 6 5 7 8 6 8 9 9 9 8 6 5 4 4 5 6 6 7 7 6 6 5 6 5 6 6 6 6 8 9 9 8 7 7 7 6 6 7 7 9 7 8 9
9 10 8 3 2 2 10 3 10 6 7 9 10 10 10 9 8 6 4 3 3 3 4 4 3 3 4 3 4 5 5 5 6 6 7 9 9 9 7 6 7 6 6 6 6 7 7 7 7
8 6 3 5 5 0 2 6 8 7 7 9 9 9 10 10 10 9 8 6 6 5 4 3 2 1 1 2 3 5 5 5 6 6 7 8 9 9 8 6 6 6 5 6 7 5 6 6 7
1 2 2 3 6 4 6 8 8 7 8 8 9 9 9 10 10 9 9 8 7 6 5 4 2 2 2 2 3 4 5 5 5 6 7 9 7 7 6 6 8 7 6 5 5 6 5 6 6
4 3 1 5 4 3 7 8 7 6 7 8 8 8 9 9 9 8 8 7 7 7 6 4 3 3 2 2 3 3 4 5 5 5 7 8 7 7 7 6 6 6 6 6 7 7 7 7 5
5 4 2 5 4 2 6 7 7 6 7 7 7 7 8 8 8 8 7 7 6 6 4 3 1 2 2 2 3 3 5 4 3 4 4 4 5 5 6 5 5 6 5 6 7 7 6 6 5
6 6 2 3 5 6 6 8 8 7 7 7 7 7 7 7 7 6 6 6 5 5 4 3 3 2 3 3 3 2 3 3 3 3 3 3 3 3 5 6 6 6 6 6 7 7 8 7 6
5 2 3 4 7 4 7 3 9 7 7 7 6 6 6 5 5 5 5 5 4 4 3 2 2 2 2 3 3 4 4 4 4 4 4 4 3 3 4 5 6 6 6 6 7 8 7 7 6
4 2 4 6 7 5 5 6 9 7 6 7 6 5 5 4 4 3 3 2 2 2 1 1 1 2 2 3 3 4 4 3 3 3 3 3 3 2 3 4 4 5 6 7 7 6 8 7 7
0 3 5 8 9 6 0 5 6 5 4 6 6 5 4 3 2 1 0 1 1 2 2 3 3 3 4 4 4 4 4 4 4 4 3 3 2 1 2 3 3 4 4 5 6 7 9 8 8
4 7 6 6 5 0 2 3 8 7 4 3 3 3 3 2 2 2 3 3 4 5 5 6 6 7 6 7 6 6 5 5 5 5 4 4 4 2 2 3 3 3 3 4 5 6 8 9 9
3 7 6 6 5 1 4 1 8 6 4 2 1 2 3 3 4 4 5 6 7 8 8 8 8 9 9 9 9 8 8 8 7 5 6 6 5 4 2 3 3 4 4 4 4 5 7 7 8
3 3 6 7 6 6 2 7 8 4 2 1 2 3 4 4 5 6 7 8 9 10 10 10 10 11 11 11 11 11 11 11 10 9 8 8 6 6 5 5 5 4 4 4 4 5 5 6 7
5 3 4 5 6 6 1 3 4 4 3 3 3 4 4 5 7 8 9 9 10 10 10 11 11 12 12 13 12 11 11 12 12 12 11 10 10 9 8 8 7 7 6 6 5 5 5 5 6
2 1 4 4 5 7 6 4 7 5 5 5 4 4 6 7 9 10 10 10 11 11 12 12 12 13 12 13 13 13 13 13 13 13 13 12 12 11 11 11 10 9 9 8 7 7 6 7 7
5 5 5 6 5 5 7 4 7 3 4 5 6 6 7 9 11 12 12 12 12 13 13 13 13 14 14 14 14 14 14 14 14 15 14 14 14 13 14 13 13 12 11 10 10 10 9 8 9
Wind_Direction
159 168 185 203 233 231 323 39 0 1 13 9 300 256 301 314 327 15 87 151 152 148 144 153 159 162 162 158 154 154 154 155 155 156 157 156 157 158 158 158 159 159 154 144 138 133 129 126 126
164 168 195 224 257 274 73 36 17 15 19 356 209 250 285 358 32 75 128 147 151 147 148 156 156 162 162 160 157 157 158 158 158 158 160 161 162 163 164 164 165 166 161 153 150 145 142 138 136
162 189 232 242 262 338 17 24 10 9 348 298 288 305 342 27 70 106 130 149 151 148 151 148 158 164 164 163 162 162 163 162 162 162 164 165 167 168 170 170 172 173 168 163 161 158 154 152 151
174 207 230 251 275 1 348 351 343 326 322 302 283 118 88 48 66 115 139 153 152 153 154 148 163 165 166 167 167 167 167 166 167 168 169 171 173 175 178 179 181 183 180 177 175 173 169 167 166
223 242 242 245 283 6 348 349 329 310 332 314 277 74 95 82 94 127 147 155 157 157 154 150 164 166 168 170 171 172 172 173 173 174 176 178 181 185 188 189 191 194 194 192 189 187 184 183 183
226 242 259 275 346 355 0 359 317 318 331 228 231 133 97 113 129 143 150 160 160 158 156 148 163 168 170 173 175 177 177 178 180 181 184 188 192 196 200 201 202 204 205 206 205 202 200 199 198
259 261 274 288 300 304 15 348 330 328 317 355 324 128 116 137 138 145 150 164 161 162 158 155 165 171 174 178 180 182 183 185 187 191 194 198 202 207 211 213 214 216 217 217 218 218 215 212 210
270 272 263 265 280 304 7 337 331 319 349 29 265 310 123 146 147 147 153 161 162 165 165 164 169 173 179 181 184 190 191 193 196 201 204 208 212 216 219 222 214 222 226 226 226 226 224 222 218
248 253 263 273 287 307 338 323 333 325 276 186 30 25 86 138 148 149 153 161 165 171 173 175 171 177 187 191 176 191 197 201 206 207 210 216 223 218 209 222 208 221 231 234 234 233 232 229 224
231 254 266 300 300 306 314 314 329 292 253 132 112 99 124 147 156 160 164 168 170 175 179 183 178 181 190 197 178 204 206 199 216 220 212 218 227 239 242 197 209 230 237 240 237 238 237 234 230
232 257 278 279 283 296 297 308 322 310 334 5 349 134 154 162 166 169 171 172 171 177 182 183 182 189 195 198 197 210 220 211 221 227 226 233 236 231 237 228 209 222 232 237 230 229 234 232 230
243 253 266 274 288 288 294 301 318 351 358 356 358 126 162 171 174 173 169 170 169 180 184 184 184 188 201 210 213 221 227 225 231 222 227 227 230 238 238 237 243 235 232 238 244 239 239 241 238
240 254 259 267 273 278 281 283 305 9 5 6 40 114 148 160 162 163 162 166 168 179 185 185 189 190 194 204 228 236 242 241 236 242 233 238 237 237 238 242 244 249 244 236 239 246 247 245 243
263 269 267 271 275 257 239 233 31 20 7 35 60 81 103 120 138 147 158 165 174 182 185 182 188 188 192 209 221 245 252 252 263 250 244 240 243 242 241 240 241 247 249 253 252 249 248 249 248
266 262 243 235 256 203 198 131 44 14 32 60 66 71 74 79 94 110 128 156 168 174 175 184 187 193 198 217 234 247 258 261 259 264 259 250 247 248 246 249 246 247 249 247 247 254 251 247 245
239 237 218 115 360 187 236 145 47 27 62 70 73 78 78 71 68 69 86 107 113 126 146 175 188 191 215 239 260 271 273 274 268 265 261 254 250 247 243 243 246 247 248 246 244 245 246 248 251
213 223 202 119 44 307 236 82 56 44 71 77 78 78 79 73 62 57 61 69 76 84 98 114 110 167 264 279 280 275 270 269 269 265 262 257 252 249 245 241 244 238 237 243 251 241 250 253 255
273 243 169 99 66 84 96 95 77 58 68 76 77 78 74 69 61 58 61 63 69 73 75 73 72 32 333 296 276 272 275 271 265 263 264 265 254 251 251 241 235 233 232 235 239 248 244 260 259
307 292 90 94 104 87 100 97 83 73 75 78 74 75 75 70 66 63 64 67 74 73 67 57 45 29 346 312 296 294 292 285 279 269 271 271 262 251 245 244 235 232 234 238 233 233 232 239 243
246 247 171 125 138 160 129 113 96 79 74 71 76 76 79 84 77 70 71 73 73 76 72 68 49 20 337 334 305 294 299 297 295 287 275 282 278 270 254 250 247 236 239 240 238 230 244 236 223
245 267 264 159 157 176 177 157 137 114 102 97 89 86 83 79 80 80 78 73 67 59 53 45 28 6 352 335 310 304 284 283 299 310 303 304 302 287 275 259 252 243 242 236 235 228 230 237 223
275 323 267 201 216 197 231 227 138 138 131 118 109 102 96 90 87 86 85 78 70 64 62 53 29 4 347 321 339 334 331 330 335 326 330 327 328 302 272 263 253 247 247 248 239 227 228 235 231
345 352 240 232 253 253 220 268 125 153 142 129 124 118 113 111 102 95 85 69 59 47 20 9 347 335 329 326 327 317 331 332 333 329 336 327 337 323 297 280 264 252 251 247 248 235 234 230 237
217 218 213 228 246 245 6 287 119 116 106 123 129 134 139 139 132 130 146 301 300 294 297 304 301 297 298 299 307 306 314 314 321 318 322 316 320 323 329 304 293 276 269 257 247 241 232 240 242
251 268 250 229 234 170 105 268 78 77 79 96 130 155 171 190 211 244 275 289 292 289 294 296 293 289 287 287 286 284 282 281 279 290 303 300 303 300 305 305 297 286 278 272 263 250 248 238 236
313 294 309 311 317 340 178 105 85 81 89 102 154 199 220 236 249 268 281 289 292 294 293 291 289 286 285 282 279 277 274 273 280 275 288 288 287 290 282 265 270 274 272 266 260 261 255 249 243
296 332 341 291 284 283 129 113 117 118 119 186 223 232 247 266 278 285 292 298 301 303 301 300 297 292 288 284 280 273 269 272 279 277 263 267 263 262 247 244 247 251 256 266 268 261 258 260 251
3 340 274 298 319 302 275 142 109 80 13 333 295 288 291 292 296 301 303 306 307 306 305 303 298 295 293 290 285 281 276 270 267 268 271 270 266 258 253 246 241 237 234 235 243 255 254 254 256
360 6 335 317 322 315 320 61 68 32 1 337 323 309 307 307 308 310 311 314 313 312 309 307 304 302 298 295 293 289 285 280 274 267 265 263 260 257 250 245 242 238 234 229 227 237 238 242 249
31 11 340 324 337 313 306 73 89 33 350 331 323 319 316 313 313 315 318 319 316 314 313 312 310 307 304 301 296 290 287 283 279 275 271 267 262 257 251 247 243 242 238 232 230 233 231 230 235